Weather History for Shelbyville, IN

Change the Weather History Date:

Friday, July 12, 2013

  Actual Average Record
Temperature  
Mean Temperature 70 °F 74 °F  
Max Temperature 82 °F 85 °F 94 °F (2011)
Min Temperature 58 °F 64 °F 54 °F (2007)
Degree Days  
Heating Degree Days 0 0  
Month to date heating degree days 0 0  
Since 1 June heating degree days 5 15  
Since 1 July heating degree days 0 0  
Cooling Degree Days 5 9  
Month to date cooling degree days 112 108  
Year to date cooling degree days 546 398  
Since 1 June cooling degree days 378 317  
Growing Degree Days 20 (Base 50)    
Moisture  
Dew Point 58 °F    
Average Humidity 68    
Maximum Humidity 93    
Minimum Humidity 43    
Precipitation  
Precipitation 0.00 in 0.17 in 0.89 in (2008)
Month to date precipitation 0.47 1.74  
Year to date precipitation 17.26 23.92  
Sea Level Pressure  
Sea Level Pressure 30.06 in    
Wind  
Wind Speed 6 mph (NE)    
Max Wind Speed 14 mph    
Max Gust Speed 33 mph    
Visibility 10 miles    
Events      
T = Trace of Precipitation, MM = Missing Value Source: NWS Daily Summary

Daily Weather History Graph

Daily Weather History Graph

Search for Another Location

Airport:

Trip Planner

Search our weather history database for the weather conditions in past years. The results will help you decide how hot, cold, wet, or windy it might be!

Date:

Astronomy

Jul. 12, 2013 Rise Set
Actual Time 6:26 AM EDT 9:11 PM EDT
Civil Twilight 5:54 AM EDT 9:42 PM EDT
Nautical Twilight 5:14 AM EDT 10:22 PM EDT
Astronomical Twilight 4:29 AM EDT 11:07 PM EDT
Moon 10:41 AM EDT (7/12) 11:22 PM EDT (7/12)
Length of Visible Light 15h 48m
Length of Day
14h 45m
Waxing Crescent, 17% of the Moon is Illuminated
Jul 12
Waxing Crescent
Jul 15
First Quarter
Jul 22
Full
Jul 29
Last Quarter
Aug 6
New

Hourly Weather History & Observations

Time (EDT) Temp. Heat Index Dew Point Humidity Pressure Visibility Wind Dir Wind Speed Gust Speed Precip Events Conditions
12:53 AM 61.0 °F - 57.0 °F 87% 30.03 in 10.0 mi ENE 3.5 mph - N/A   Clear
1:53 AM 62.1 °F - 57.0 °F 84% 30.04 in 10.0 mi NW 3.5 mph - N/A   Clear
2:53 AM 61.0 °F - 55.9 °F 83% 30.04 in 10.0 mi Calm Calm - N/A   Partly Cloudy
3:53 AM 61.0 °F - 55.9 °F 83% 30.04 in 10.0 mi North 3.5 mph - N/A   Clear
4:53 AM 59.0 °F - 55.9 °F 90% 30.05 in 8.0 mi Calm Calm - N/A   Unknown
5:53 AM 57.9 °F - 55.0 °F 90% 30.06 in 8.0 mi North 4.6 mph - N/A   Clear
6:53 AM 59.0 °F - 55.0 °F 87% 30.08 in 7.0 mi North 3.5 mph - N/A   Clear
7:53 AM 64.0 °F - 57.9 °F 80% 30.09 in 10.0 mi NNE 4.6 mph - N/A   Clear
8:53 AM 68.0 °F - 60.1 °F 76% 30.09 in 10.0 mi Variable 5.8 mph - N/A   Clear
9:53 AM 73.0 °F - 61.0 °F 66% 30.10 in 10.0 mi East 6.9 mph - N/A   Clear
10:53 AM 75.0 °F - 60.1 °F 60% 30.10 in 10.0 mi ENE 9.2 mph - N/A   Clear
11:53 AM 77.0 °F - 59.0 °F 54% 30.09 in 10.0 mi East 6.9 mph - N/A   Scattered Clouds
12:53 PM 78.1 °F - 57.0 °F 48% 30.09 in 10.0 mi ENE 11.5 mph 33.4 mph N/A   Partly Cloudy
1:53 PM 80.1 °F 80.7 °F 59.0 °F 48% 30.08 in 10.0 mi ENE 11.5 mph 16.1 mph N/A   Scattered Clouds
2:53 PM 81.0 °F 81.1 °F 57.9 °F 45% 30.07 in 10.0 mi NNE 9.2 mph - N/A   Partly Cloudy
3:53 PM 82.0 °F 82.0 °F 57.9 °F 44% 30.06 in 10.0 mi North 6.9 mph - N/A   Scattered Clouds
4:53 PM 82.0 °F 82.0 °F 57.9 °F 44% 30.06 in 10.0 mi NNE 10.4 mph - N/A   Clear
5:53 PM 81.0 °F 81.3 °F 59.0 °F 47% 30.05 in 10.0 mi ENE 8.1 mph - N/A   Scattered Clouds
6:53 PM 80.1 °F 80.4 °F 57.0 °F 45% 30.05 in 10.0 mi NE 6.9 mph - N/A   Partly Cloudy
7:53 PM 78.1 °F - 57.0 °F 48% 30.04 in 10.0 mi NE 6.9 mph - N/A   Clear
8:53 PM 73.9 °F - 57.9 °F 57% 30.04 in 10.0 mi NNE 6.9 mph - N/A   Clear
9:53 PM 70.0 °F - 57.9 °F 65% 30.05 in 10.0 mi NNE 5.8 mph - N/A   Clear
10:53 PM 69.1 °F - 57.9 °F 68% 30.06 in 10.0 mi NNE 6.9 mph - N/A   Clear
11:53 PM 68.0 °F - 59.0 °F 73% 30.06 in 10.0 mi North 4.6 mph - N/A   Clear